Year,Month,Day,Hour,Minute,Value (Times are PST for temperature in C)
2011,11,27,00,00,13.10
2011,11,27,00,01,13.10
2011,11,27,00,02,13.10
2011,11,27,00,03,13.10
2011,11,27,00,04,13.10
2011,11,27,00,05,13.10
2011,11,27,00,06,13.00
2011,11,27,00,07,13.00
2011,11,27,00,08,13.00
2011,11,27,00,09,13.00
2011,11,27,00,10,13.00
2011,11,27,00,11,13.00
2011,11,27,00,12,13.00
2011,11,27,00,13,13.00
2011,11,27,00,14,13.00
2011,11,27,00,15,13.00
2011,11,27,00,16,13.00
2011,11,27,00,17,13.00
2011,11,27,00,18,12.90
2011,11,27,00,19,12.90
2011,11,27,00,20,12.90
2011,11,27,00,21,12.90
2011,11,27,00,22,13.00
2011,11,27,00,23,13.00
2011,11,27,00,24,13.00
2011,11,27,00,25,12.90
2011,11,27,00,26,12.90
2011,11,27,00,27,12.90
2011,11,27,00,28,12.90
2011,11,27,00,29,12.90
2011,11,27,00,30,12.90
2011,11,27,00,31,12.90
2011,11,27,00,32,13.00
2011,11,27,00,33,13.00
2011,11,27,00,34,13.00
2011,11,27,00,35,13.00
2011,11,27,00,36,13.00
2011,11,27,00,37,13.00
2011,11,27,00,38,13.00
2011,11,27,00,39,13.00
2011,11,27,00,40,13.00
2011,11,27,00,41,13.00
2011,11,27,00,42,13.10
2011,11,27,00,43,13.10
2011,11,27,00,44,13.10
2011,11,27,00,45,13.10
2011,11,27,00,46,13.10
2011,11,27,00,47,13.10
2011,11,27,00,48,13.10
2011,11,27,00,49,13.10
2011,11,27,00,50,13.10
2011,11,27,00,51,13.10
2011,11,27,00,52,13.10
2011,11,27,00,53,13.10
2011,11,27,00,54,13.10
2011,11,27,00,55,13.10
2011,11,27,00,56,13.10
2011,11,27,00,57,13.10
2011,11,27,00,58,13.10
2011,11,27,00,59,13.10
2011,11,27,01,00,13.10
2011,11,27,01,01,13.10
2011,11,27,01,02,13.10
2011,11,27,01,03,13.10
2011,11,27,01,04,13.20
2011,11,27,01,05,13.10
2011,11,27,01,06,13.10
2011,11,27,01,07,13.10
2011,11,27,01,08,13.10
2011,11,27,01,09,13.20
2011,11,27,01,10,13.20
2011,11,27,01,11,13.10
2011,11,27,01,12,13.10
2011,11,27,01,13,13.10
2011,11,27,01,14,13.10
2011,11,27,01,15,13.10
2011,11,27,01,16,13.10
2011,11,27,01,17,13.10
2011,11,27,01,18,13.10
2011,11,27,01,19,13.10
2011,11,27,01,20,13.00
2011,11,27,01,21,13.00
2011,11,27,01,22,13.00
2011,11,27,01,23,13.00
2011,11,27,01,24,13.00
2011,11,27,01,25,12.90
2011,11,27,01,26,12.90
2011,11,27,01,27,12.90
2011,11,27,01,28,12.90
2011,11,27,01,29,12.90
2011,11,27,01,30,12.90
2011,11,27,01,31,12.80
2011,11,27,01,32,12.80
2011,11,27,01,33,12.80
2011,11,27,01,34,12.80
2011,11,27,01,35,12.80
2011,11,27,01,36,12.80
2011,11,27,01,37,12.80
2011,11,27,01,38,12.80
2011,11,27,01,39,12.80
2011,11,27,01,40,12.80
2011,11,27,01,41,12.80
2011,11,27,01,42,12.80
2011,11,27,01,43,12.70
2011,11,27,01,44,12.70
2011,11,27,01,45,12.70
2011,11,27,01,46,12.70
2011,11,27,01,47,12.70
2011,11,27,01,48,12.70
2011,11,27,01,49,12.70
2011,11,27,01,50,12.70
2011,11,27,01,51,12.80
2011,11,27,01,52,12.80
2011,11,27,01,53,12.80
2011,11,27,01,54,12.80
2011,11,27,01,55,12.80
2011,11,27,01,56,12.90
2011,11,27,01,57,12.90
2011,11,27,01,58,13.00
2011,11,27,01,59,13.00
2011,11,27,02,00,13.00
2011,11,27,02,01,12.90
2011,11,27,02,02,12.90
2011,11,27,02,03,12.90
2011,11,27,02,04,12.90
2011,11,27,02,05,12.90
2011,11,27,02,06,12.90
2011,11,27,02,07,12.90
2011,11,27,02,08,12.90
2011,11,27,02,09,12.90
2011,11,27,02,10,13.00
2011,11,27,02,11,13.00
2011,11,27,02,12,13.00
2011,11,27,02,13,13.00
2011,11,27,02,14,12.90
2011,11,27,02,15,12.90
2011,11,27,02,16,12.90
2011,11,27,02,17,12.90
2011,11,27,02,18,12.80
2011,11,27,02,19,12.80
2011,11,27,02,20,12.80
2011,11,27,02,21,12.80
2011,11,27,02,22,12.80
2011,11,27,02,23,12.80
2011,11,27,02,24,12.80
2011,11,27,02,25,12.80
2011,11,27,02,26,12.80
2011,11,27,02,27,12.80
2011,11,27,02,28,12.80
2011,11,27,02,29,12.80
2011,11,27,02,30,12.80
2011,11,27,02,31,12.90
2011,11,27,02,32,12.90
2011,11,27,02,33,12.90
2011,11,27,02,34,12.90
2011,11,27,02,35,12.90
2011,11,27,02,36,12.90
2011,11,27,02,37,13.00
2011,11,27,02,38,13.00
2011,11,27,02,39,13.00
2011,11,27,02,40,13.00
2011,11,27,02,41,13.00
2011,11,27,02,42,13.10
2011,11,27,02,43,13.10
2011,11,27,02,44,13.10
2011,11,27,02,45,13.10
2011,11,27,02,46,13.10
2011,11,27,02,47,13.10
2011,11,27,02,48,13.10
2011,11,27,02,49,13.10
2011,11,27,02,50,13.10
2011,11,27,02,51,13.00
2011,11,27,02,52,13.00
2011,11,27,02,53,13.00
2011,11,27,02,54,12.90
2011,11,27,02,55,12.90
2011,11,27,02,56,12.80
2011,11,27,02,57,12.80
2011,11,27,02,58,12.80
2011,11,27,02,59,12.80
2011,11,27,03,00,12.80
2011,11,27,03,01,12.80
2011,11,27,03,02,12.80
2011,11,27,03,03,12.80
2011,11,27,03,04,12.80
2011,11,27,03,05,12.80
2011,11,27,03,06,12.80
2011,11,27,03,07,12.80
2011,11,27,03,08,12.80
2011,11,27,03,09,12.80
2011,11,27,03,10,12.80
2011,11,27,03,11,12.80
2011,11,27,03,12,12.80
2011,11,27,03,13,12.80
2011,11,27,03,14,12.80
2011,11,27,03,15,12.80
2011,11,27,03,16,12.80
2011,11,27,03,17,12.70
2011,11,27,03,18,12.70
2011,11,27,03,19,12.70
2011,11,27,03,20,12.70
2011,11,27,03,21,12.70
2011,11,27,03,22,12.70
2011,11,27,03,23,12.70
2011,11,27,03,24,12.70
2011,11,27,03,25,12.80
2011,11,27,03,26,12.80
2011,11,27,03,27,12.80
2011,11,27,03,28,12.80
2011,11,27,03,29,12.80
2011,11,27,03,30,12.90
2011,11,27,03,31,12.90
2011,11,27,03,32,12.90
2011,11,27,03,33,12.90
2011,11,27,03,34,12.90
2011,11,27,03,35,12.90
2011,11,27,03,36,12.90
2011,11,27,03,37,12.90
2011,11,27,03,38,12.90
2011,11,27,03,39,13.00
2011,11,27,03,40,13.00
2011,11,27,03,41,13.00
2011,11,27,03,42,13.00
2011,11,27,03,43,13.00
2011,11,27,03,44,13.00
2011,11,27,03,45,13.00
2011,11,27,03,46,13.00
2011,11,27,03,47,13.00
2011,11,27,03,48,13.00
2011,11,27,03,49,13.00
2011,11,27,03,50,13.00
2011,11,27,03,51,13.00
2011,11,27,03,52,13.00
2011,11,27,03,53,13.10
2011,11,27,03,54,13.10
2011,11,27,03,55,13.10
2011,11,27,03,56,13.10
2011,11,27,03,57,13.10
2011,11,27,03,58,13.10
2011,11,27,03,59,13.10
2011,11,27,04,00,13.00
2011,11,27,04,01,13.00
2011,11,27,04,02,13.00
2011,11,27,04,03,13.00
2011,11,27,04,04,13.00
2011,11,27,04,05,13.00
2011,11,27,04,06,13.00
2011,11,27,04,07,13.10
2011,11,27,04,08,13.10
2011,11,27,04,09,13.00
2011,11,27,04,10,13.00
2011,11,27,04,11,13.00
2011,11,27,04,12,12.90
2011,11,27,04,13,12.90
2011,11,27,04,14,12.90
2011,11,27,04,15,12.90
2011,11,27,04,16,12.90
2011,11,27,04,17,12.80
2011,11,27,04,18,12.80
2011,11,27,04,19,12.80
2011,11,27,04,20,12.80
2011,11,27,04,21,12.80
2011,11,27,04,22,12.80
2011,11,27,04,23,12.80
2011,11,27,04,24,12.80
2011,11,27,04,25,12.70
2011,11,27,04,26,12.70
2011,11,27,04,27,12.60
2011,11,27,04,28,12.60
2011,11,27,04,29,12.50
2011,11,27,04,30,12.50
2011,11,27,04,31,12.40
2011,11,27,04,32,12.40
2011,11,27,04,33,12.40
2011,11,27,04,34,12.30
2011,11,27,04,35,12.30
2011,11,27,04,36,12.30
2011,11,27,04,37,12.30
2011,11,27,04,38,12.30
2011,11,27,04,39,12.30
2011,11,27,04,40,12.30
2011,11,27,04,41,12.30
2011,11,27,04,42,12.20
2011,11,27,04,43,12.20
2011,11,27,04,44,12.20
2011,11,27,04,45,12.20
2011,11,27,04,46,12.20
2011,11,27,04,47,12.10
2011,11,27,04,48,12.10
2011,11,27,04,49,12.10
2011,11,27,04,50,12.10
2011,11,27,04,51,12.10
2011,11,27,04,52,12.10
2011,11,27,04,53,12.10
2011,11,27,04,54,12.00
2011,11,27,04,55,12.00
2011,11,27,04,56,12.00
2011,11,27,04,57,12.00
2011,11,27,04,58,12.00
2011,11,27,04,59,12.10
2011,11,27,05,00,12.00
2011,11,27,05,01,12.00
2011,11,27,05,02,12.00
2011,11,27,05,03,12.00
2011,11,27,05,04,12.00
2011,11,27,05,05,12.00
2011,11,27,05,06,12.00
2011,11,27,05,07,12.00
2011,11,27,05,08,12.00
2011,11,27,05,09,12.00
2011,11,27,05,10,12.00
2011,11,27,05,11,12.00
2011,11,27,05,12,12.00
2011,11,27,05,13,11.90
2011,11,27,05,14,11.90
2011,11,27,05,15,11.90
2011,11,27,05,16,11.90
2011,11,27,05,17,11.90
2011,11,27,05,18,11.90
2011,11,27,05,19,11.90
2011,11,27,05,20,12.00
2011,11,27,05,21,12.00
2011,11,27,05,22,12.00
2011,11,27,05,23,12.00
2011,11,27,05,24,12.00
2011,11,27,05,25,12.00
2011,11,27,05,26,11.90
2011,11,27,05,27,11.90
2011,11,27,05,28,11.90
2011,11,27,05,29,11.90
2011,11,27,05,30,11.90
2011,11,27,05,31,11.80
2011,11,27,05,32,11.80
2011,11,27,05,33,11.80
2011,11,27,05,34,11.80
2011,11,27,05,35,11.80
2011,11,27,05,36,11.80
2011,11,27,05,37,11.80
2011,11,27,05,38,11.80
2011,11,27,05,39,11.70
2011,11,27,05,40,11.70
2011,11,27,05,41,11.70
2011,11,27,05,42,11.60
2011,11,27,05,43,11.60
2011,11,27,05,44,11.60
2011,11,27,05,45,11.60
2011,11,27,05,46,11.60
2011,11,27,05,47,11.60
2011,11,27,05,48,11.60
2011,11,27,05,49,11.60
2011,11,27,05,50,11.50
2011,11,27,05,51,11.40
2011,11,27,05,52,11.40
2011,11,27,05,53,11.40
2011,11,27,05,54,11.40
2011,11,27,05,55,11.40
2011,11,27,05,56,11.40
2011,11,27,05,57,11.40
2011,11,27,05,58,11.40
2011,11,27,05,59,11.40
2011,11,27,06,00,11.40
2011,11,27,06,01,11.40
2011,11,27,06,02,11.40
2011,11,27,06,03,11.40
2011,11,27,06,04,11.40
2011,11,27,06,05,11.40
2011,11,27,06,06,11.40
2011,11,27,06,07,11.40
2011,11,27,06,08,11.40
2011,11,27,06,09,11.40
2011,11,27,06,10,11.40
2011,11,27,06,11,11.40
2011,11,27,06,12,11.40
2011,11,27,06,13,11.40
2011,11,27,06,14,11.40
2011,11,27,06,15,11.40
2011,11,27,06,16,11.40
2011,11,27,06,17,11.40
2011,11,27,06,18,11.30
2011,11,27,06,19,11.30
2011,11,27,06,20,11.30
2011,11,27,06,21,11.40
2011,11,27,06,22,11.40
2011,11,27,06,23,11.40
2011,11,27,06,24,11.40
2011,11,27,06,25,11.40
2011,11,27,06,26,11.30
2011,11,27,06,27,11.30
2011,11,27,06,28,11.40
2011,11,27,06,29,11.40
2011,11,27,06,30,11.40
2011,11,27,06,31,11.40
2011,11,27,06,32,11.40
2011,11,27,06,33,11.40
2011,11,27,06,34,11.40
2011,11,27,06,35,11.40
2011,11,27,06,36,11.40
2011,11,27,06,37,11.40
2011,11,27,06,38,11.30
2011,11,27,06,39,11.30
2011,11,27,06,40,11.30
2011,11,27,06,41,11.30
2011,11,27,06,42,11.30
2011,11,27,06,43,11.30
2011,11,27,06,44,11.30
2011,11,27,06,45,11.30
2011,11,27,06,46,11.30
2011,11,27,06,47,11.30
2011,11,27,06,48,11.30
2011,11,27,06,49,11.30
2011,11,27,06,50,11.30
2011,11,27,06,51,11.30
2011,11,27,06,52,11.30
2011,11,27,06,53,11.30
2011,11,27,06,54,11.30
2011,11,27,06,55,11.30
2011,11,27,06,56,11.30
2011,11,27,06,57,11.30
2011,11,27,06,58,11.30
2011,11,27,06,59,11.30
2011,11,27,07,00,11.30
2011,11,27,07,01,11.30
2011,11,27,07,02,11.20
2011,11,27,07,03,11.20
2011,11,27,07,04,11.20
2011,11,27,07,05,11.20
2011,11,27,07,06,11.20
2011,11,27,07,07,11.20
2011,11,27,07,08,11.20
2011,11,27,07,09,11.20
2011,11,27,07,10,11.20
2011,11,27,07,11,11.20
2011,11,27,07,12,11.20
2011,11,27,07,13,11.20
2011,11,27,07,14,11.10
2011,11,27,07,15,11.10
2011,11,27,07,16,11.10
2011,11,27,07,17,11.10
2011,11,27,07,18,11.10
2011,11,27,07,19,11.10
2011,11,27,07,20,11.00
2011,11,27,07,21,10.90
2011,11,27,07,22,10.90
2011,11,27,07,23,10.90
2011,11,27,07,24,10.90
2011,11,27,07,25,10.90
2011,11,27,07,26,10.90
2011,11,27,07,27,10.90
2011,11,27,07,28,10.90
2011,11,27,07,29,11.00
2011,11,27,07,30,11.10
2011,11,27,07,31,11.10
2011,11,27,07,32,11.10
2011,11,27,07,33,11.10
2011,11,27,07,34,11.10
2011,11,27,07,35,11.10
2011,11,27,07,36,11.10
2011,11,27,07,37,11.10
2011,11,27,07,38,11.10
2011,11,27,07,39,11.10
2011,11,27,07,40,11.10
2011,11,27,07,41,11.10
2011,11,27,07,42,11.10
2011,11,27,07,43,11.10
2011,11,27,07,44,11.10
2011,11,27,07,45,11.10
2011,11,27,07,46,11.10
2011,11,27,07,47,11.10
2011,11,27,07,48,11.10
2011,11,27,07,49,11.10
2011,11,27,07,50,11.10
2011,11,27,07,51,11.00
2011,11,27,07,52,10.90
2011,11,27,07,53,11.00
2011,11,27,07,54,11.10
2011,11,27,07,55,11.10
2011,11,27,07,56,11.10
2011,11,27,07,57,11.10
2011,11,27,07,58,11.10
2011,11,27,07,59,11.10
2011,11,27,08,00,11.10
2011,11,27,08,01,11.10
2011,11,27,08,02,11.00
2011,11,27,08,03,10.90
2011,11,27,08,04,10.90
2011,11,27,08,05,10.90
2011,11,27,08,06,10.90
2011,11,27,08,07,10.90
2011,11,27,08,08,11.00
2011,11,27,08,09,11.10
2011,11,27,08,10,11.10
2011,11,27,08,11,11.10
2011,11,27,08,12,11.00
2011,11,27,08,13,10.90
2011,11,27,08,14,10.90
2011,11,27,08,15,10.90
2011,11,27,08,16,10.90
2011,11,27,08,17,10.80
2011,11,27,08,18,10.80
2011,11,27,08,19,10.80
2011,11,27,08,20,10.80
2011,11,27,08,21,10.80
2011,11,27,08,22,10.80
2011,11,27,08,23,10.80
2011,11,27,08,24,10.80
2011,11,27,08,25,10.80
2011,11,27,08,26,10.80
2011,11,27,08,27,10.80
2011,11,27,08,28,10.70
2011,11,27,08,29,10.70
2011,11,27,08,30,10.70
2011,11,27,08,31,10.60
2011,11,27,08,32,10.60
2011,11,27,08,33,10.60
2011,11,27,08,34,10.60
2011,11,27,08,35,10.60
2011,11,27,08,36,10.60
2011,11,27,08,37,10.60
2011,11,27,08,38,10.50
2011,11,27,08,39,10.40
2011,11,27,08,40,10.40
2011,11,27,08,41,10.40
2011,11,27,08,42,10.40
2011,11,27,08,43,10.40
2011,11,27,08,44,10.40
2011,11,27,08,45,10.30
2011,11,27,08,46,10.30
2011,11,27,08,47,10.30
2011,11,27,08,48,10.20
2011,11,27,08,49,10.20
2011,11,27,08,50,10.20
2011,11,27,08,51,10.20
2011,11,27,08,52,10.20
2011,11,27,08,53,10.20
2011,11,27,08,54,10.10
2011,11,27,08,55,10.10
2011,11,27,08,56,10.10
2011,11,27,08,57,10.10
2011,11,27,08,58,10.10
2011,11,27,08,59,10.10
2011,11,27,09,00,10.00
2011,11,27,09,01,9.90
2011,11,27,09,02,9.90
2011,11,27,09,03,9.90
2011,11,27,09,04,9.90
2011,11,27,09,05,9.90
2011,11,27,09,06,9.80
2011,11,27,09,07,9.80
2011,11,27,09,08,9.70
2011,11,27,09,09,9.70
2011,11,27,09,10,9.70
2011,11,27,09,11,9.70
2011,11,27,09,12,9.70
2011,11,27,09,13,9.70
2011,11,27,09,14,9.70
2011,11,27,09,15,9.70
2011,11,27,09,16,9.70
2011,11,27,09,17,9.70
2011,11,27,09,18,9.70
2011,11,27,09,19,9.70
2011,11,27,09,20,9.70
2011,11,27,09,21,9.70
2011,11,27,09,22,9.70
2011,11,27,09,23,9.70
2011,11,27,09,24,9.60
2011,11,27,09,25,9.60
2011,11,27,09,26,9.60
2011,11,27,09,27,9.50
2011,11,27,09,28,9.50
2011,11,27,09,29,9.50
2011,11,27,09,30,9.50
2011,11,27,09,31,9.50
2011,11,27,09,32,9.40
2011,11,27,09,33,9.40
2011,11,27,09,34,9.40
2011,11,27,09,35,9.40
2011,11,27,09,36,9.40
2011,11,27,09,37,9.40
2011,11,27,09,38,9.40
2011,11,27,09,39,9.40
2011,11,27,09,40,9.40
2011,11,27,09,41,9.50
2011,11,27,09,42,9.50
2011,11,27,09,43,9.50
2011,11,27,09,44,9.50
2011,11,27,09,45,9.50
2011,11,27,09,46,9.50
2011,11,27,09,47,9.50
2011,11,27,09,48,9.50
2011,11,27,09,49,9.50
2011,11,27,09,50,9.50
2011,11,27,09,51,9.50
2011,11,27,09,52,9.50
2011,11,27,09,53,9.50
2011,11,27,09,54,9.50
2011,11,27,09,55,9.50
2011,11,27,09,56,9.50
2011,11,27,09,57,9.50
2011,11,27,09,58,9.50
2011,11,27,09,59,9.50
2011,11,27,10,00,9.50
2011,11,27,10,01,9.50
2011,11,27,10,02,9.50
2011,11,27,10,03,9.60
2011,11,27,10,04,9.60
2011,11,27,10,05,9.60
2011,11,27,10,06,9.60
2011,11,27,10,07,9.70
2011,11,27,10,08,9.70
2011,11,27,10,09,9.70
2011,11,27,10,10,9.70
2011,11,27,10,11,9.70
2011,11,27,10,12,9.70
2011,11,27,10,13,9.70
2011,11,27,10,14,9.70
2011,11,27,10,15,9.70
2011,11,27,10,16,9.70
2011,11,27,10,17,9.60
2011,11,27,10,18,9.60
2011,11,27,10,19,9.60
2011,11,27,10,20,9.60
2011,11,27,10,21,9.60
2011,11,27,10,22,9.60
2011,11,27,10,23,9.60
2011,11,27,10,24,9.60
2011,11,27,10,25,9.60
2011,11,27,10,26,9.60
2011,11,27,10,27,9.60
2011,11,27,10,28,9.60
2011,11,27,10,29,9.60
2011,11,27,10,30,9.50
2011,11,27,10,31,9.50
2011,11,27,10,32,9.50
2011,11,27,10,33,9.50
2011,11,27,10,34,9.50
2011,11,27,10,35,9.50
2011,11,27,10,36,9.50
2011,11,27,10,37,9.50
2011,11,27,10,38,9.50
2011,11,27,10,39,9.50
2011,11,27,10,40,9.50
2011,11,27,10,41,9.50
2011,11,27,10,42,9.50
2011,11,27,10,43,9.50
2011,11,27,10,44,9.60
2011,11,27,10,45,9.60
2011,11,27,10,46,9.60
2011,11,27,10,47,9.70
2011,11,27,10,48,9.70
2011,11,27,10,49,9.70
2011,11,27,10,50,9.70
2011,11,27,10,51,9.70
2011,11,27,10,52,9.80
2011,11,27,10,53,9.80
2011,11,27,10,54,9.90
2011,11,27,10,55,9.90
2011,11,27,10,56,9.90
2011,11,27,10,57,10.00
2011,11,27,10,58,10.10
2011,11,27,10,59,10.10
2011,11,27,11,00,10.10
2011,11,27,11,01,10.10
2011,11,27,11,02,10.10
2011,11,27,11,03,10.10
2011,11,27,11,04,10.10
2011,11,27,11,05,10.10
2011,11,27,11,06,10.10
2011,11,27,11,07,10.10
2011,11,27,11,08,10.10
2011,11,27,11,09,10.10
2011,11,27,11,10,10.10
2011,11,27,11,11,10.10
2011,11,27,11,12,10.10
2011,11,27,11,13,10.10
2011,11,27,11,14,10.10
2011,11,27,11,15,10.10
2011,11,27,11,16,10.10
2011,11,27,11,17,10.10
2011,11,27,11,18,10.10
2011,11,27,11,19,10.10
2011,11,27,11,20,10.10
2011,11,27,11,21,10.10
2011,11,27,11,22,10.10
2011,11,27,11,23,10.10
2011,11,27,11,24,10.10
2011,11,27,11,25,10.10
2011,11,27,11,26,10.10
2011,11,27,11,27,10.10
2011,11,27,11,28,10.10
2011,11,27,11,29,10.10
2011,11,27,11,30,10.10
2011,11,27,11,31,10.10
2011,11,27,11,32,10.10
2011,11,27,11,33,10.10
2011,11,27,11,34,10.10
2011,11,27,11,35,10.10
2011,11,27,11,36,10.10
2011,11,27,11,37,10.10
2011,11,27,11,38,10.10
2011,11,27,11,39,10.10
2011,11,27,11,40,10.10
2011,11,27,11,41,10.10
2011,11,27,11,42,10.10
2011,11,27,11,43,10.10
2011,11,27,11,44,10.10
2011,11,27,11,45,10.10
2011,11,27,11,46,10.10
2011,11,27,11,47,10.10
2011,11,27,11,48,10.10
2011,11,27,11,49,10.10
2011,11,27,11,50,10.10
2011,11,27,11,51,10.10
2011,11,27,11,52,10.10
2011,11,27,11,53,10.10
2011,11,27,11,54,10.10
2011,11,27,11,55,10.10
2011,11,27,11,56,10.10
2011,11,27,11,57,10.10
2011,11,27,11,58,10.10
2011,11,27,11,59,10.10
2011,11,27,12,00,10.10
2011,11,27,12,01,10.10
2011,11,27,12,02,10.10
2011,11,27,12,03,10.10
2011,11,27,12,04,10.10
2011,11,27,12,05,10.10
2011,11,27,12,06,10.10
2011,11,27,12,07,10.10
2011,11,27,12,08,10.10
2011,11,27,12,09,10.10
2011,11,27,12,10,10.10
2011,11,27,12,11,10.10
2011,11,27,12,12,10.10
2011,11,27,12,13,10.10
2011,11,27,12,14,10.10
2011,11,27,12,15,10.10
2011,11,27,12,16,10.10
2011,11,27,12,17,10.10
2011,11,27,12,18,10.10
2011,11,27,12,19,10.10
2011,11,27,12,20,10.10
2011,11,27,12,21,10.10
2011,11,27,12,22,10.10
2011,11,27,12,23,10.10
2011,11,27,12,24,10.10
2011,11,27,12,25,10.20
2011,11,27,12,26,10.20
2011,11,27,12,27,10.20
2011,11,27,12,28,10.20
2011,11,27,12,29,10.30
2011,11,27,12,30,10.30
2011,11,27,12,31,10.30
2011,11,27,12,32,10.30
2011,11,27,12,33,10.30
2011,11,27,12,34,10.30
2011,11,27,12,35,10.30
2011,11,27,12,36,10.30
2011,11,27,12,37,10.30
2011,11,27,12,38,10.30
2011,11,27,12,39,10.30
2011,11,27,12,40,10.30
2011,11,27,12,41,10.30
2011,11,27,12,42,10.30
2011,11,27,12,43,10.30
2011,11,27,12,44,10.30
2011,11,27,12,45,10.30
2011,11,27,12,46,10.30
2011,11,27,12,47,10.30
2011,11,27,12,48,10.20
2011,11,27,12,49,10.30
2011,11,27,12,50,10.30
2011,11,27,12,51,10.30
2011,11,27,12,52,10.30
2011,11,27,12,53,10.30
2011,11,27,12,54,10.20
2011,11,27,12,55,10.20
2011,11,27,12,56,10.20
2011,11,27,12,57,10.20
2011,11,27,12,58,10.20
2011,11,27,12,59,10.10
2011,11,27,13,00,10.10
2011,11,27,13,01,10.10
2011,11,27,13,02,10.10
2011,11,27,13,03,10.10
2011,11,27,13,04,10.10
2011,11,27,13,05,10.10
2011,11,27,13,06,10.10
2011,11,27,13,07,10.10
2011,11,27,13,08,10.10
2011,11,27,13,09,10.10
2011,11,27,13,10,10.10
2011,11,27,13,11,10.10
2011,11,27,13,12,10.10
2011,11,27,13,13,10.00
2011,11,27,13,14,9.90
2011,11,27,13,15,9.80
2011,11,27,13,16,9.70
2011,11,27,13,17,9.70
2011,11,27,13,18,9.60
2011,11,27,13,19,9.50
2011,11,27,13,20,9.50
2011,11,27,13,21,9.50
2011,11,27,13,22,9.40
2011,11,27,13,23,9.40
2011,11,27,13,24,9.40
2011,11,27,13,25,9.40
2011,11,27,13,26,9.40
2011,11,27,13,27,9.40
2011,11,27,13,28,9.40
2011,11,27,13,29,9.40
2011,11,27,13,30,9.40
2011,11,27,13,31,9.40
2011,11,27,13,32,9.40
2011,11,27,13,33,9.40
2011,11,27,13,34,9.40
2011,11,27,13,35,9.40
2011,11,27,13,36,9.40
2011,11,27,13,37,9.40
2011,11,27,13,38,9.40
2011,11,27,13,39,9.50
2011,11,27,13,40,9.50
2011,11,27,13,41,9.50
2011,11,27,13,42,9.50
2011,11,27,13,43,9.60
2011,11,27,13,44,9.60
2011,11,27,13,45,9.60
2011,11,27,13,46,9.60
2011,11,27,13,47,9.60
2011,11,27,13,48,9.60
2011,11,27,13,49,9.60
2011,11,27,13,50,9.70
2011,11,27,13,51,9.70
2011,11,27,13,52,9.70
2011,11,27,13,53,9.70
2011,11,27,13,54,9.70
2011,11,27,13,55,9.70
2011,11,27,13,56,9.70
2011,11,27,13,57,9.70
2011,11,27,13,58,9.70
2011,11,27,13,59,9.60
2011,11,27,14,00,9.60
2011,11,27,14,01,9.50
2011,11,27,14,02,9.50
2011,11,27,14,03,9.50
2011,11,27,14,04,9.50
2011,11,27,14,05,9.40
2011,11,27,14,06,9.40
2011,11,27,14,07,9.40
2011,11,27,14,08,9.30
2011,11,27,14,09,9.30
2011,11,27,14,10,9.30
2011,11,27,14,11,9.30
2011,11,27,14,12,9.20
2011,11,27,14,13,9.20
2011,11,27,14,14,9.20
2011,11,27,14,15,9.20
2011,11,27,14,16,9.20
2011,11,27,14,17,9.20
2011,11,27,14,18,9.20
2011,11,27,14,19,9.20
2011,11,27,14,20,9.20
2011,11,27,14,21,9.20
2011,11,27,14,22,9.30
2011,11,27,14,23,9.30
2011,11,27,14,24,9.40
2011,11,27,14,25,9.40
2011,11,27,14,26,9.40
2011,11,27,14,27,9.40
2011,11,27,14,28,9.40
2011,11,27,14,29,9.40
2011,11,27,14,30,9.50
2011,11,27,14,31,9.50
2011,11,27,14,32,9.50
2011,11,27,14,33,9.50
2011,11,27,14,34,9.50
2011,11,27,14,35,9.60
2011,11,27,14,36,9.60
2011,11,27,14,37,9.60
2011,11,27,14,38,9.60
2011,11,27,14,39,9.60
2011,11,27,14,40,9.60
2011,11,27,14,41,9.60
2011,11,27,14,42,9.60
2011,11,27,14,43,9.60
2011,11,27,14,44,9.60
2011,11,27,14,45,9.60
2011,11,27,14,46,9.60
2011,11,27,14,47,9.50
2011,11,27,14,48,9.60
2011,11,27,14,49,9.60
2011,11,27,14,50,9.60
2011,11,27,14,51,9.60
2011,11,27,14,52,9.50
2011,11,27,14,53,9.30
2011,11,27,14,54,9.20
2011,11,27,14,55,9.20
2011,11,27,14,56,9.00
2011,11,27,14,57,9.00
2011,11,27,14,58,8.90
2011,11,27,14,59,8.80
2011,11,27,15,00,8.70
2011,11,27,15,01,8.70
2011,11,27,15,02,8.60
2011,11,27,15,03,8.60
2011,11,27,15,04,8.50
2011,11,27,15,05,8.50
2011,11,27,15,06,8.50
2011,11,27,15,07,8.50
2011,11,27,15,08,8.50
2011,11,27,15,09,8.50
2011,11,27,15,10,8.50
2011,11,27,15,11,8.40
2011,11,27,15,12,8.40
2011,11,27,15,13,8.40
2011,11,27,15,14,8.40
2011,11,27,15,15,8.50
2011,11,27,15,16,8.50
2011,11,27,15,17,8.50
2011,11,27,15,18,8.50
2011,11,27,15,19,8.50
2011,11,27,15,20,8.50
2011,11,27,15,21,8.50
2011,11,27,15,22,8.50
2011,11,27,15,23,8.50
2011,11,27,15,24,8.50
2011,11,27,15,25,8.40
2011,11,27,15,26,8.40
2011,11,27,15,27,8.40
2011,11,27,15,28,8.30
2011,11,27,15,29,8.30
2011,11,27,15,30,8.30
2011,11,27,15,31,8.30
2011,11,27,15,32,8.20
2011,11,27,15,33,8.30
2011,11,27,15,34,8.30
2011,11,27,15,35,8.30
2011,11,27,15,36,8.20
2011,11,27,15,37,8.20
2011,11,27,15,38,8.20
2011,11,27,15,39,8.20
2011,11,27,15,40,8.20
2011,11,27,15,41,8.20
2011,11,27,15,42,8.20
2011,11,27,15,43,8.20
2011,11,27,15,44,8.20
2011,11,27,15,45,8.20
2011,11,27,15,46,8.20
2011,11,27,15,47,8.20
2011,11,27,15,48,8.20
2011,11,27,15,49,8.20
2011,11,27,15,50,8.20
2011,11,27,15,51,8.20
2011,11,27,15,52,8.20
2011,11,27,15,53,8.20
2011,11,27,15,54,8.20
2011,11,27,15,55,8.10
2011,11,27,15,56,8.10
2011,11,27,15,57,8.10
2011,11,27,15,58,8.10
2011,11,27,15,59,8.10
2011,11,27,16,00,8.10
2011,11,27,16,01,8.00
2011,11,27,16,02,8.00
2011,11,27,16,03,8.00
2011,11,27,16,04,7.90
2011,11,27,16,05,7.90
2011,11,27,16,06,7.90
2011,11,27,16,07,7.90
2011,11,27,16,08,7.90
2011,11,27,16,09,7.90
2011,11,27,16,10,7.90
2011,11,27,16,11,7.90
2011,11,27,16,12,7.90
2011,11,27,16,13,7.90
2011,11,27,16,14,7.90
2011,11,27,16,15,7.90
2011,11,27,16,16,7.80
2011,11,27,16,17,7.80
2011,11,27,16,18,7.80
2011,11,27,16,19,7.80
2011,11,27,16,20,7.80
2011,11,27,16,21,7.80
2011,11,27,16,22,7.80
2011,11,27,16,23,7.80
2011,11,27,16,24,7.80
2011,11,27,16,25,7.80
2011,11,27,16,26,7.80
2011,11,27,16,27,7.80
2011,11,27,16,28,7.80
2011,11,27,16,29,7.80
2011,11,27,16,30,7.80
2011,11,27,16,31,7.80
2011,11,27,16,32,7.70
2011,11,27,16,33,7.70
2011,11,27,16,34,7.70
2011,11,27,16,35,7.70
2011,11,27,16,36,7.70
2011,11,27,16,37,7.60
2011,11,27,16,38,7.60
2011,11,27,16,39,7.60
2011,11,27,16,40,7.60
2011,11,27,16,41,7.60
2011,11,27,16,42,7.60
2011,11,27,16,43,7.50
2011,11,27,16,44,7.50
2011,11,27,16,45,7.50
2011,11,27,16,46,7.50
2011,11,27,16,47,7.50
2011,11,27,16,48,7.50
2011,11,27,16,49,7.40
2011,11,27,16,50,7.40
2011,11,27,16,51,7.40
2011,11,27,16,52,7.40
2011,11,27,16,53,7.40
2011,11,27,16,54,7.40
2011,11,27,16,55,7.40
2011,11,27,16,56,7.40
2011,11,27,16,57,7.40
2011,11,27,16,58,7.40
2011,11,27,16,59,7.40
2011,11,27,17,00,7.40
2011,11,27,17,01,7.40
2011,11,27,17,02,7.40
2011,11,27,17,03,7.40
2011,11,27,17,04,7.40
2011,11,27,17,05,7.40
2011,11,27,17,06,7.30
2011,11,27,17,07,7.30
2011,11,27,17,08,7.30
2011,11,27,17,09,7.30
2011,11,27,17,10,7.30
2011,11,27,17,11,7.30
2011,11,27,17,12,7.30
2011,11,27,17,13,7.30
2011,11,27,17,14,7.30
2011,11,27,17,15,7.20
2011,11,27,17,16,7.20
2011,11,27,17,17,7.20
2011,11,27,17,18,7.20
2011,11,27,17,19,7.20
2011,11,27,17,20,7.20
2011,11,27,17,21,7.10
2011,11,27,17,22,7.10
2011,11,27,17,23,7.10
2011,11,27,17,24,7.10
2011,11,27,17,25,7.10
2011,11,27,17,26,7.10
2011,11,27,17,27,7.10
2011,11,27,17,28,7.00
2011,11,27,17,29,7.00
2011,11,27,17,30,7.00
2011,11,27,17,31,7.00
2011,11,27,17,32,7.00
2011,11,27,17,33,7.00
2011,11,27,17,34,7.00
2011,11,27,17,35,7.10